Location: Losili
(4.4086°N, 32.7049°E)
Time: 00:41:13
(UTC+00:00)

SAR-Lupe-2 - Pass Details

Date: 18 September 2019
Orbit: 481 x 485 km, 98.2° (Epoch: 07 October)

Event Time Altitude Azimuth Distance (km) Brightness Sun altitude
Rises 16:14:22 0° 26° (NNE) 2,528 7.0 -7.6°
Reaches altitude 10° 16:16:33 10° 36° (NE) 1,651 5.9 -8.1°
Maximum altitude 16:19:46 33° 101° (ESE) 833 4.2 -8.9°
Drops below altitude 10° 16:22:59 10° 167° (SSE) 1,654 6.1 -9.7°
Sets 16:25:11 0° 176° (S) 2,534 7.1 -10.3°
